Location: Ergnies
(50.0854°N, 2.0375°E)
Time: 10:02:42
(UTC+00:00)

USA 32 - Pass Details

Date: 14 January 2026
Orbit: 774 x 780 km, 85.0° (Epoch: 10 February)

Event Time Altitude Azimuth Distance (km) Brightness Sun altitude
Rises 06:42:30 0° 204° (SSW) 3,254 7.2 -9.8°
Reaches altitude 10° 06:44:57 10° 211° (SSW) 2,330 6.4 -9.4°
Maximum altitude 06:49:57 44° 283° (WNW) 1,073 4.3 -8.7°
Drops below altitude 10° 06:54:58 10° 355° (N) 2,346 6.2 -8.0°
Sets 06:57:27 0° 2° (N) 3,278 7.0 -7.6°
